Bartow, FL

8:36 AM EDT on June 26, 2017 (GMT -0400)
Bartow Municipal

Weather History for KBOW - February, 2014

Change the Weather History Date:

Saturday, February 8, 2014

  Actual Average Record
Temperature  
Mean Temperature 58 °F -  
Max Temperature 62 °F 72 °F 86 °F (1933)
Min Temperature 55 °F 49 °F 32 °F (1952)
Degree Days  
Heating Degree Days 6    
Growing Degree Days 8 (Base 50)    
Moisture  
Dew Point 56 °F    
Average Humidity 99    
Maximum Humidity 100    
Minimum Humidity 94    
Precipitation  
Precipitation 0.00 in - - ()
Sea Level Pressure  
Sea Level Pressure 30.12 in    
Wind  
Wind Speed 5 mph (NNE)    
Max Wind Speed 12 mph    
Max Gust Speed -    
Visibility 9 miles    
Events Rain    
Averages and records for this station are not official NWS values.
T = Trace of Precipitation, MM = Missing Value Source: NWS Daily Summary

Daily Weather History Graph

Daily Weather History Graph

Search for Another Location

Airport or City:

Trip Planner

Search our weather history database for the weather conditions in past years. The results will help you decide how hot, cold, wet, or windy it might be!

Date:

Astronomy

Feb. 08, 2014 Rise Set
Actual Time 7:09 AM EST 6:13 PM EST
Civil Twilight 6:45 AM EST 6:37 PM EST
Nautical Twilight 6:17 AM EST 7:05 PM EST
Astronomical Twilight 5:50 AM EST 7:32 PM EST
Moon 1:13 PM EST (2/8) 2:14 AM EST (2/8)
Length of Visible Light 11h 51m
Length of Day
11h 03m
Waxing Gibbous, 68% of the Moon is Illuminated
Feb 8
Waxing Gibbous
Feb 14
Full
Feb 22
Last Quarter
Mar 1
New
Mar 8
First Quarter

Hourly Weather History & Observations

Time (EST) Temp. Dew Point Humidity Pressure Visibility Wind Dir Wind Speed Gust Speed Precip Events Conditions
12:15 AM 55.4 °F 55.4 °F 100% 30.16 in 9.0 mi NE 5.8 mph - N/A   Overcast
12:35 AM 55.4 °F 55.4 °F 100% 30.15 in 10.0 mi NNE 8.1 mph - N/A   Overcast
12:55 AM 55.4 °F 55.4 °F 100% 30.15 in 10.0 mi NNE 5.8 mph - N/A   Overcast
1:15 AM 55.4 °F 55.4 °F 100% 30.16 in 10.0 mi North 5.8 mph - N/A   Overcast
1:35 AM 55.4 °F 55.4 °F 100% 30.15 in 10.0 mi NNE 8.1 mph - N/A   Overcast
1:55 AM 55.4 °F 55.4 °F 100% 30.14 in 10.0 mi NNE 4.6 mph - N/A   Overcast
2:15 AM 55.4 °F 55.4 °F 100% 30.14 in 10.0 mi NNE 4.6 mph - N/A   Overcast
2:35 AM 55.4 °F 55.4 °F 100% 30.13 in 10.0 mi NNE 4.6 mph - N/A   Overcast
2:55 AM 55.4 °F 55.4 °F 100% 30.13 in 10.0 mi NNE 3.5 mph - N/A   Overcast
3:15 AM 55.4 °F 55.4 °F 100% 30.12 in 10.0 mi Calm Calm - N/A   Overcast
3:35 AM 55.4 °F 55.4 °F 100% 30.12 in 10.0 mi North 3.5 mph - N/A   Overcast
3:55 AM 55.4 °F 55.4 °F 100% 30.12 in 10.0 mi North 4.6 mph - N/A   Overcast
4:15 AM 55.4 °F 55.4 °F 100% 30.10 in 10.0 mi ENE 4.6 mph - N/A   Overcast
4:35 AM 55.4 °F 55.4 °F 100% 30.08 in 10.0 mi East 6.9 mph - N/A   Mostly Cloudy
4:55 AM 55.4 °F 55.4 °F 100% 30.08 in 10.0 mi East 4.6 mph - N/A   Scattered Clouds
5:15 AM 55.4 °F 55.4 °F 100% 30.09 in 10.0 mi Calm Calm - N/A   Mostly Cloudy
5:35 AM 57.2 °F 57.2 °F 100% 30.09 in 10.0 mi North 3.5 mph - N/A   Overcast
5:55 AM 57.2 °F 57.2 °F 100% 30.09 in 10.0 mi Calm Calm - N/A   Overcast
6:15 AM 57.2 °F 57.2 °F 100% 30.10 in 10.0 mi Calm Calm - N/A   Overcast
7:47 AM 57.2 °F 57.2 °F 100% 30.10 in 10.0 mi SE 3.5 mph - N/A   Overcast
8:23 AM 57.2 °F 57.2 °F 100% 30.12 in 10.0 mi Calm Calm - N/A   Overcast
8:50 AM 60.8 °F 59.0 °F 94% 30.12 in 7.0 mi Calm Calm - N/A   Overcast
9:50 AM 62.6 °F 60.8 °F 94% 30.14 in 10.0 mi Calm Calm - N/A   Overcast
10:50 AM 60.8 °F 60.8 °F 100% 30.16 in 3.0 mi North 6.9 mph - N/A Rain Light Rain
11:50 AM 60.8 °F 60.8 °F 100% 30.14 in 7.0 mi North 8.1 mph - N/A   Overcast
12:47 PM 60.8 °F 60.8 °F 100% 30.12 in 7.0 mi NNE 3.5 mph - N/A   Overcast
1:50 PM 60.8 °F 59.0 °F 94% 30.11 in 7.0 mi North 5.8 mph - N/A   Overcast
2:35 PM 57.2 °F 57.2 °F 100% 30.10 in 8.0 mi North 9.2 mph - N/A   Overcast
2:55 PM 57.2 °F 57.2 °F 100% 30.11 in 9.0 mi North 11.5 mph - N/A   Overcast
3:15 PM 57.2 °F 57.2 °F 100% 30.10 in 9.0 mi North 10.4 mph - N/A   Overcast
3:35 PM 57.2 °F 57.2 °F 100% 30.10 in 10.0 mi North 9.2 mph - N/A   Overcast
3:50 PM 57.2 °F 57.2 °F 100% 30.10 in 7.0 mi North 8.1 mph - N/A   Overcast
3:55 PM 57.2 °F 57.2 °F 100% 30.10 in 10.0 mi North 9.2 mph - N/A   Overcast
4:15 PM 57.2 °F 55.4 °F 94% 30.10 in 10.0 mi North 8.1 mph - N/A   Overcast
4:35 PM 57.2 °F 55.4 °F 94% 30.11 in 10.0 mi NNE 6.9 mph - N/A   Overcast
4:50 PM 57.2 °F 57.2 °F 100% 30.11 in 7.0 mi NNE 5.8 mph - N/A   Overcast
4:55 PM 57.2 °F 55.4 °F 94% 30.11 in 10.0 mi NNE 5.8 mph - N/A   Overcast
5:15 PM 57.2 °F 55.4 °F 94% 30.12 in 10.0 mi North 5.8 mph - N/A   Overcast
5:35 PM 57.2 °F 57.2 °F 100% 30.13 in 5.0 mi North 10.4 mph - N/A   Light Drizzle
5:55 PM 57.2 °F 57.2 °F 100% 30.13 in 7.0 mi North 8.1 mph - N/A   Overcast
6:15 PM 57.2 °F 57.2 °F 100% 30.13 in 6.0 mi North 6.9 mph - N/A   Overcast
6:35 PM 57.2 °F 57.2 °F 100% 30.12 in 10.0 mi ENE 4.6 mph - N/A   Overcast
6:55 PM 55.4 °F 55.4 °F 100% 30.11 in 10.0 mi NE 4.6 mph - N/A   Scattered Clouds
7:15 PM 55.4 °F 55.4 °F 100% 30.11 in 10.0 mi ENE 5.8 mph - N/A   Partly Cloudy
7:35 PM 55.4 °F 55.4 °F 100% 30.10 in 10.0 mi ESE 5.8 mph - N/A   Clear
7:55 PM 55.4 °F 55.4 °F 100% 30.10 in 10.0 mi East 4.6 mph - N/A   Clear
8:15 PM 55.4 °F 55.4 °F 100% 30.11 in 10.0 mi Calm Calm - N/A   Clear
8:35 PM 55.4 °F 55.4 °F 100% 30.11 in 10.0 mi East 3.5 mph - N/A   Clear
8:55 PM 55.4 °F 55.4 °F 100% 30.11 in 10.0 mi ENE 3.5 mph - N/A   Clear
9:15 PM 55.4 °F 55.4 °F 100% 30.12 in 10.0 mi North 3.5 mph - N/A   Clear
9:35 PM 57.2 °F 57.2 °F 100% 30.13 in 10.0 mi NNW 6.9 mph - N/A   Scattered Clouds
9:55 PM 57.2 °F 57.2 °F 100% 30.13 in 10.0 mi NNW 6.9 mph - N/A   Overcast
10:15 PM 57.2 °F 57.2 °F 100% 30.14 in 9.0 mi North 9.2 mph - N/A   Overcast
10:35 PM 55.4 °F 55.4 °F 100% 30.14 in 7.0 mi North 10.4 mph - N/A   Overcast
10:55 PM 55.4 °F 55.4 °F 100% 30.14 in 10.0 mi North 6.9 mph - N/A   Overcast
11:15 PM 55.4 °F 55.4 °F 100% 30.14 in 8.0 mi North 8.1 mph - N/A   Overcast
11:35 PM 55.4 °F 55.4 °F 100% 30.13 in 10.0 mi North 11.5 mph - N/A   Overcast
11:55 PM 55.4 °F 55.4 °F 100% 30.14 in 10.0 mi North 6.9 mph - N/A   Overcast